QPF
0.00 0.00 0.00 0.00 0.00 0.00 0.00 0.00 0.00 0.00 0.00 0.00 0.00 0.00 0.00 0.00 0.00 0.00 0.00 0.00 0.00 0.00 0.00 0.01 0.00 0.01 0.00 0.03 0.04 0.03 0.03 0.02 0.02 0.01 0.00 0.00 0.00 0.00 0.00 0.00 0.00 0.00 0.00 0.00 0.00 0.00 0.00 0.00 0.00
0.00 0.00 0.00 0.00 0.00 0.00 0.00 0.00 0.00 0.00 0.00 0.00 0.00 0.00 0.00 0.00 0.00 0.00 0.00 0.00 0.00 0.00 0.00 0.00 0.01 0.03 0.00 0.01 0.02 0.02 0.04 0.08 0.13 0.09 0.07 0.02 0.00 0.00 0.00 0.00 0.00 0.00 0.00 0.00 0.00 0.00 0.00 0.00 0.00
0.00 0.00 0.00 0.00 0.00 0.00 0.00 0.00 0.00 0.00 0.00 0.00 0.00 0.00 0.00 0.00 0.00 0.00 0.00 0.00 0.00 0.00 0.00 0.00 0.01 0.03 0.00 0.00 0.00 0.01 0.04 0.06 0.15 0.12 0.09 0.09 0.02 0.00 0.00 0.00 0.00 0.00 0.00 0.00 0.00 0.00 0.00 0.00 0.00
0.00 0.00 0.00 0.00 0.00 0.00 0.00 0.00 0.00 0.00 0.00 0.00 0.00 0.00 0.00 0.00 0.00 0.00 0.00 0.00 0.00 0.00 0.00 0.00 0.00 0.00 0.00 0.00 0.00 0.02 0.03 0.08 0.03 0.03 0.09 0.18 0.16 0.04 0.00 0.00 0.00 0.00 0.00 0.00 0.00 0.00 0.00 0.00 0.00
0.00 0.00 0.00 0.00 0.00 0.00 0.00 0.00 0.00 0.00 0.00 0.00 0.00 0.00 0.00 0.00 0.00 0.00 0.00 0.00 0.00 0.00 0.00 0.00 0.00 0.00 0.00 0.00 0.00 0.01 0.01 0.03 0.03 0.04 0.08 0.09 0.22 0.14 0.03 0.00 0.00 0.00 0.00 0.00 0.00 0.00 0.00 0.00 0.00
0.00 0.00 0.00 0.00 0.00 0.00 0.00 0.00 0.00 0.00 0.00 0.00 0.00 0.00 0.00 0.00 0.00 0.00 0.00 0.00 0.00 0.00 0.00 0.00 0.00 0.00 0.00 0.00 0.00 0.00 0.01 0.00 0.03 0.03 0.05 0.21 0.24 0.25 0.19 0.04 0.00 0.00 0.00 0.00 0.00 0.00 0.00 0.00 0.00
0.00 0.00 0.00 0.00 0.00 0.00 0.00 0.00 0.00 0.00 0.00 0.00 0.00 0.00 0.00 0.00 0.00 0.00 0.00 0.00 0.00 0.00 0.00 0.00 0.00 0.00 0.00 0.00 0.00 0.00 0.02 0.00 0.01 0.04 0.08 0.14 0.04 0.15 0.12 0.18 0.05 0.00 0.00 0.00 0.00 0.00 0.00 0.00 0.00
0.00 0.00 0.00 0.00 0.00 0.00 0.00 0.00 0.00 0.00 0.00 0.00 0.00 0.00 0.00 0.00 0.00 0.00 0.00 0.00 0.00 0.00 0.00 0.00 0.00 0.00 0.00 0.01 0.02 0.01 0.01 0.00 0.00 0.04 0.06 0.09 0.00 0.00 0.02 0.10 0.08 0.00 0.00 0.00 0.00 0.00 0.00 0.00 0.00
0.00 0.00 0.00 0.00 0.00 0.00 0.00 0.00 0.00 0.00 0.00 0.00 0.00 0.00 0.00 0.00 0.00 0.00 0.00 0.00 0.00 0.00 0.00 0.00 0.00 0.00 0.00 0.00 0.01 0.06 0.03 0.00 0.01 0.06 0.12 0.06 0.00 0.00 0.00 0.00 0.03 0.02 0.00 0.00 0.00 0.00 0.01 0.03 0.00
0.00 0.00 0.00 0.00 0.00 0.00 0.00 0.00 0.00 0.00 0.00 0.00 0.00 0.00 0.00 0.00 0.00 0.00 0.00 0.00 0.00 0.00 0.00 0.00 0.00 0.00 0.00 0.00 0.01 0.04 0.09 0.08 0.01 0.08 0.10 0.02 0.00 0.00 0.01 0.01 0.01 0.00 0.00 0.00 0.00 0.02 0.13 0.05 0.01
0.00 0.00 0.00 0.00 0.00 0.00 0.00 0.00 0.00 0.00 0.00 0.00 0.00 0.00 0.00 0.00 0.00 0.00 0.00 0.00 0.00 0.00 0.00 0.00 0.00 0.00 0.00 0.00 0.00 0.00 0.01 0.14 0.05 0.12 0.12 0.01 0.00 0.02 0.07 0.05 0.02 0.00 0.00 0.00 0.00 0.04 0.09 0.06 0.00
0.00 0.00 0.00 0.00 0.00 0.00 0.00 0.00 0.00 0.00 0.00 0.00 0.00 0.00 0.00 0.00 0.00 0.00 0.00 0.00 0.00 0.00 0.00 0.00 0.00 0.00 0.00 0.00 0.00 0.00 0.00 0.09 0.09 0.15 0.08 0.04 0.00 0.01 0.04 0.06 0.01 0.00 0.00 0.00 0.00 0.01 0.02 0.01 0.00
0.00 0.00 0.00 0.00 0.00 0.00 0.00 0.00 0.00 0.00 0.00 0.00 0.00 0.00 0.00 0.00 0.00 0.00 0.00 0.00 0.00 0.00 0.00 0.00 0.00 0.00 0.00 0.00 0.00 0.00 0.00 0.01 0.07 0.04 0.03 0.04 0.01 0.01 0.00 0.00 0.00 0.00 0.00 0.00 0.01 0.00 0.00 0.00 0.00
0.00 0.00 0.00 0.00 0.00 0.00 0.00 0.00 0.00 0.00 0.00 0.00 0.00 0.00 0.00 0.00 0.00 0.00 0.00 0.00 0.00 0.00 0.00 0.00 0.00 0.00 0.00 0.00 0.00 0.00 0.00 0.00 0.00 0.00 0.00 0.00 0.01 0.01 0.00 0.00 0.00 0.00 0.00 0.00 0.00 0.00 0.00 0.00 0.00
0.00 0.00 0.00 0.00 0.00 0.00 0.00 0.00 0.00 0.00 0.00 0.00 0.00 0.00 0.00 0.00 0.00 0.00 0.00 0.00 0.00 0.00 0.00 0.00 0.00 0.00 0.00 0.00 0.00 0.00 0.04 0.03 0.05 0.05 0.02 0.00 0.00 0.01 0.00 0.00 0.01 0.00 0.00 0.00 0.00 0.00 0.00 0.01 0.00
0.00 0.00 0.00 0.00 0.00 0.00 0.00 0.00 0.00 0.00 0.00 0.00 0.00 0.00 0.00 0.00 0.00 0.00 0.00 0.00 0.00 0.00 0.00 0.00 0.00 0.00 0.00 0.00 0.00 0.03 0.06 0.05 0.31 0.24 0.16 0.06 0.00 0.00 0.00 0.00 0.00 0.01 0.00 0.00 0.00 0.00 0.00 0.02 0.03
0.00 0.00 0.00 0.00 0.00 0.00 0.00 0.00 0.00 0.00 0.00 0.00 0.00 0.00 0.00 0.00 0.00 0.00 0.00 0.00 0.00 0.00 0.00 0.00 0.00 0.00 0.00 0.00 0.00 0.00 0.01 0.20 0.31 0.22 0.13 0.19 0.08 0.00 0.00 0.00 0.02 0.05 0.00 0.00 0.00 0.00 0.00 0.00 0.00
0.00 0.00 0.00 0.00 0.00 0.00 0.00 0.00 0.00 0.00 0.00 0.00 0.00 0.00 0.00 0.00 0.00 0.00 0.00 0.00 0.00 0.02 0.00 0.00 0.00 0.00 0.00 0.03 0.03 0.00 0.01 0.18 0.25 0.00 0.01 0.04 0.03 0.00 0.00 0.00 0.05 0.02 0.04 0.00 0.00 0.01 0.01 0.00 0.00
0.00 0.00 0.00 0.00 0.00 0.00 0.00 0.00 0.00 0.00 0.00 0.00 0.00 0.00 0.00 0.00 0.00 0.00 0.00 0.00 0.02 0.09 0.02 0.00 0.00 0.00 0.00 0.00 0.00 0.00 0.00 0.05 0.14 0.00 0.01 0.02 0.04 0.01 0.00 0.00 0.01 0.00 0.00 0.02 0.06 0.01 0.03 0.03 0.00
0.00 0.00 0.00 0.00 0.00 0.00 0.00 0.00 0.00 0.00 0.00 0.00 0.00 0.00 0.00 0.00 0.00 0.00 0.00 0.00 0.02 0.01 0.00 0.00 0.00 0.00 0.00 0.00 0.01 0.00 0.00 0.03 0.09 0.13 0.14 0.17 0.12 0.01 0.00 0.01 0.03 0.00 0.00 0.01 0.03 0.00 0.08 0.07 0.01
0.00 0.00 0.00 0.00 0.00 0.00 0.00 0.00 0.00 0.00 0.00 0.00 0.00 0.00 0.00 0.00 0.00 0.00 0.00 0.00 0.00 0.01 0.00 0.00 0.00 0.00 0.00 0.03 0.04 0.02 0.00 0.02 0.00 0.03 0.03 0.03 0.04 0.08 0.02 0.01 0.00 0.07 0.07 0.01 0.05 0.01 0.03 0.11 0.05
0.00 0.00 0.00 0.00 0.00 0.00 0.00 0.00 0.00 0.00 0.00 0.00 0.00 0.00 0.00 0.00 0.00 0.00 0.00 0.00 0.00 0.00 0.04 0.00 0.00 0.00 0.00 0.00 0.00 0.00 0.00 0.01 0.00 0.03 0.05 0.03 0.02 0.04 0.00 0.00 0.01 0.02 0.03 0.01 0.02 0.02 0.01 0.01 0.08
0.00 0.00 0.00 0.00 0.00 0.00 0.00 0.00 0.00 0.00 0.00 0.00 0.00 0.00 0.00 0.00 0.00 0.00 0.00 0.00 0.00 0.00 0.00 0.00 0.00 0.00 0.00 0.00 0.00 0.00 0.00 0.00 0.01 0.00 0.00 0.00 0.00 0.00 0.00 0.00 0.00 0.00 0.00 0.00 0.00 0.00 0.00 0.05 0.09
0.00 0.00 0.00 0.00 0.00 0.00 0.00 0.00 0.00 0.00 0.00 0.00 0.00 0.00 0.00 0.00 0.00 0.00 0.00 0.00 0.00 0.00 0.00 0.00 0.00 0.01 0.02 0.00 0.00 0.00 0.00 0.00 0.00 0.00 0.00 0.00 0.00 0.00 0.00 0.00 0.02 0.00 0.00 0.00 0.00 0.00 0.00 0.04 0.03
0.00 0.00 0.00 0.00 0.00 0.00 0.00 0.00 0.00 0.00 0.00 0.00 0.00 0.00 0.00 0.00 0.00 0.00 0.00 0.00 0.00 0.00 0.00 0.00 0.00 0.02 0.01 0.01 0.00 0.00 0.00 0.00 0.00 0.00 0.00 0.00 0.00 0.00 0.00 0.06 0.07 0.02 0.00 0.00 0.00 0.00 0.01 0.10 0.05
0.00 0.00 0.00 0.00 0.00 0.00 0.00 0.00 0.00 0.00 0.00 0.00 0.00 0.00 0.00 0.00 0.00 0.00 0.00 0.00 0.00 0.00 0.00 0.00 0.01 0.02 0.01 0.01 0.00 0.00 0.00 0.00 0.02 0.01 0.00 0.00 0.01 0.00 0.01 0.01 0.02 0.00 0.00 0.00 0.03 0.02 0.07 0.06 0.02
0.00 0.00 0.00 0.00 0.00 0.00 0.00 0.00 0.00 0.00 0.00 0.00 0.00 0.00 0.00 0.00 0.00 0.00 0.00 0.00 0.00 0.00 0.00 0.00 0.01 0.16 0.09 0.07 0.01 0.00 0.00 0.00 0.05 0.06 0.01 0.01 0.09 0.08 0.07 0.02 0.01 0.00 0.00 0.00 0.03 0.05 0.03 0.01 0.01
0.00 0.00 0.00 0.00 0.00 0.00 0.00 0.00 0.00 0.00 0.00 0.00 0.00 0.00 0.00 0.00 0.00 0.00 0.00 0.01 0.00 0.00 0.00 0.00 0.00 0.03 0.05 0.03 0.00 0.00 0.00 0.00 0.04 0.07 0.07 0.03 0.14 0.10 0.05 0.00 0.00 0.00 0.00 0.00 0.03 0.01 0.04 0.01 0.01
0.00 0.00 0.00 0.00 0.00 0.00 0.00 0.00 0.00 0.00 0.00 0.00 0.00 0.00 0.00 0.00 0.00 0.00 0.00 0.00 0.00 0.00 0.00 0.00 0.00 0.00 0.01 0.04 0.04 0.02 0.01 0.05 0.01 0.03 0.04 0.02 0.07 0.06 0.07 0.00 0.00 0.00 0.00 0.00 0.04 0.00 0.00 0.01 0.01
0.00 0.00 0.00 0.00 0.00 0.00 0.00 0.00 0.00 0.00 0.00 0.00 0.00 0.00 0.00 0.00 0.00 0.00 0.00 0.00 0.00 0.00 0.00 0.00 0.00 0.00 0.00 0.00 0.00 0.01 0.02 0.06 0.30 0.11 0.02 0.03 0.03 0.00 0.00 0.00 0.00 0.00 0.00 0.02 0.01 0.03 0.00 0.00 0.00
MSLP
1007.60 1007.57 1007.83 1007.78 1007.96 1007.40 1007.38 1007.38 1007.09 1006.83 1007.01 1007.41 1007.97 1008.54 1009.13 1009.82 1010.47 1011.84 1012.50 1012.97 1013.14 1013.52 1014.02 1014.34 1014.64 1014.90 1015.08 1015.27 1015.64 1015.94 1016.29 1016.66 1017.04 1017.33 1017.51 1017.52 1017.53 1017.64 1017.79 1018.09 1018.30 1018.46 1018.63 1018.75 1018.87 1018.93 1019.03 1019.00 1019.28
1007.45 1007.64 1007.66 1007.40 1007.55 1007.55 1007.75 1007.57 1007.12 1006.97 1007.23 1007.61 1008.02 1008.58 1009.15 1010.18 1011.13 1012.06 1012.64 1013.10 1013.25 1013.41 1013.94 1014.37 1014.85 1015.09 1015.41 1015.59 1015.91 1016.19 1016.57 1016.91 1017.42 1017.50 1017.77 1017.94 1017.93 1018.00 1018.10 1018.35 1018.58 1018.76 1018.81 1018.94 1019.03 1019.20 1019.28 1019.38 1019.50
1007.43 1007.13 1007.11 1007.25 1007.77 1007.84 1007.81 1007.71 1007.49 1007.37 1007.38 1007.42 1008.06 1008.82 1009.70 1010.89 1011.68 1012.04 1012.50 1012.98 1013.41 1013.82 1013.98 1014.62 1015.06 1015.32 1015.58 1015.85 1016.08 1016.30 1016.59 1017.07 1017.64 1017.91 1018.18 1018.29 1018.30 1018.34 1018.50 1018.65 1018.88 1019.05 1019.09 1019.16 1019.22 1019.35 1019.47 1019.65 1019.75
1006.79 1006.82 1007.10 1007.34 1007.77 1008.08 1007.90 1007.75 1007.72 1007.45 1007.56 1007.76 1008.32 1009.25 1010.76 1011.42 1011.80 1012.22 1012.78 1013.19 1013.53 1014.04 1014.23 1014.75 1015.03 1015.44 1015.72 1016.02 1016.29 1016.58 1016.98 1017.38 1017.99 1018.44 1018.91 1018.93 1018.73 1018.60 1018.79 1018.93 1019.11 1019.30 1019.41 1019.44 1019.48 1019.55 1019.67 1019.78 1019.86
1006.46 1006.57 1007.00 1007.50 1007.83 1007.91 1008.01 1007.93 1007.82 1007.67 1007.94 1008.17 1008.55 1009.91 1010.99 1011.79 1012.06 1012.62 1013.07 1013.38 1013.64 1014.16 1014.46 1014.88 1015.20 1015.40 1015.82 1016.19 1016.51 1016.70 1017.13 1017.53 1018.06 1018.67 1019.07 1019.43 1019.26 1018.90 1019.02 1019.14 1019.27 1019.44 1019.63 1019.66 1019.74 1019.78 1019.87 1019.91 1019.99
1006.50 1006.99 1007.15 1007.44 1007.65 1007.76 1007.79 1007.85 1007.74 1007.94 1008.33 1008.59 1008.90 1009.89 1011.37 1012.08 1012.29 1012.78 1013.25 1013.45 1013.71 1014.22 1014.47 1015.04 1015.42 1015.70 1016.01 1016.24 1016.59 1016.88 1017.10 1017.50 1017.96 1018.53 1019.22 1019.62 1019.80 1019.60 1019.42 1019.38 1019.45 1019.57 1019.69 1019.78 1019.86 1019.96 1020.05 1020.06 1020.08
1006.48 1006.84 1007.31 1007.55 1007.58 1007.48 1007.52 1007.70 1007.79 1008.12 1008.40 1008.63 1009.06 1010.06 1011.82 1012.22 1012.45 1012.88 1013.42 1013.81 1014.07 1014.38 1014.55 1014.94 1015.39 1015.82 1016.13 1016.43 1016.71 1016.91 1017.20 1017.51 1017.92 1018.43 1019.03 1019.64 1020.05 1020.10 1019.90 1019.73 1019.47 1019.60 1019.68 1019.86 1019.97 1020.09 1020.15 1020.19 1020.15
1006.72 1006.77 1006.93 1007.31 1007.31 1007.26 1007.33 1007.68 1008.05 1008.23 1008.60 1008.97 1009.31 1009.81 1011.10 1011.84 1012.58 1013.11 1013.64 1013.95 1014.28 1014.62 1014.67 1014.96 1015.29 1015.59 1015.94 1016.39 1016.69 1016.97 1017.30 1017.74 1018.09 1018.40 1018.84 1019.38 1020.05 1020.17 1019.93 1019.90 1019.82 1019.72 1019.73 1019.92 1020.01 1020.07 1020.20 1020.24 1020.25
1006.98 1006.82 1006.69 1006.74 1006.90 1006.74 1007.34 1007.61 1008.15 1008.38 1008.68 1009.15 1009.52 1009.81 1010.29 1011.58 1012.49 1013.12 1013.62 1014.13 1014.46 1014.65 1014.73 1014.85 1015.27 1015.59 1015.85 1016.13 1016.52 1016.94 1017.31 1017.76 1018.07 1018.44 1018.77 1019.26 1019.76 1019.92 1019.97 1019.91 1019.86 1019.86 1019.90 1020.01 1020.09 1020.03 1020.11 1020.22 1020.24
1006.66 1006.68 1006.37 1006.38 1006.57 1006.45 1007.02 1007.39 1007.72 1008.21 1008.46 1009.06 1009.58 1010.30 1010.99 1011.66 1012.37 1012.71 1013.03 1013.44 1013.97 1014.30 1014.61 1014.83 1014.92 1015.37 1015.82 1016.04 1016.45 1016.85 1017.25 1017.45 1017.91 1018.25 1018.69 1019.01 1019.37 1019.56 1019.73 1019.88 1019.76 1019.81 1019.89 1020.03 1020.08 1020.05 1020.04 1020.04 1019.86
1006.55 1006.35 1006.22 1005.99 1006.16 1006.39 1006.93 1007.39 1007.67 1007.64 1007.69 1007.96 1008.74 1010.06 1010.91 1011.56 1012.09 1012.37 1012.72 1012.87 1013.24 1013.95 1014.40 1014.73 1015.18 1015.53 1015.78 1015.96 1016.39 1016.81 1016.81 1017.45 1017.75 1018.05 1018.54 1018.76 1019.02 1019.26 1019.56 1019.57 1019.51 1019.48 1019.72 1019.69 1019.79 1019.74 1019.74 1019.82 1019.95
1006.22 1005.91 1005.79 1005.88 1005.91 1006.19 1006.58 1006.99 1007.10 1007.26 1007.15 1007.43 1008.24 1009.46 1010.30 1010.88 1011.31 1011.76 1012.24 1012.58 1013.21 1013.73 1014.10 1014.63 1014.95 1015.51 1015.86 1016.04 1016.26 1016.38 1016.61 1017.07 1017.43 1017.68 1018.18 1018.64 1018.94 1019.11 1019.35 1019.58 1019.38 1019.55 1019.51 1019.62 1019.74 1019.51 1019.58 1019.74 1019.96
1006.13 1005.76 1005.69 1005.61 1006.03 1006.12 1006.41 1006.49 1006.67 1006.70 1007.21 1007.70 1008.45 1009.33 1009.92 1010.34 1010.78 1011.40 1011.98 1012.61 1013.24 1013.67 1014.18 1014.63 1015.16 1015.53 1015.67 1015.97 1016.11 1016.28 1016.81 1016.93 1017.31 1017.46 1017.94 1018.38 1018.80 1018.69 1018.89 1019.30 1019.19 1019.20 1019.42 1019.55 1019.60 1019.39 1019.38 1019.54 1019.65
1006.35 1006.09 1005.53 1005.36 1005.61 1005.87 1006.05 1006.20 1006.59 1006.40 1007.07 1007.96 1008.74 1009.00 1009.39 1009.78 1010.30 1011.18 1011.77 1012.25 1012.80 1013.31 1013.76 1014.36 1014.93 1015.26 1015.59 1015.91 1016.03 1016.17 1016.47 1016.73 1017.03 1017.27 1017.52 1018.06 1018.27 1018.43 1018.63 1018.86 1018.92 1018.92 1019.13 1019.24 1019.31 1019.33 1019.35 1019.38 1019.54
1006.38 1006.03 1005.48 1005.14 1005.48 1005.60 1005.84 1005.97 1005.82 1005.98 1006.74 1007.51 1008.31 1008.97 1009.21 1009.45 1010.15 1010.37 1010.89 1011.47 1012.13 1012.74 1013.34 1014.00 1014.53 1014.79 1015.43 1015.72 1015.88 1016.06 1016.28 1016.68 1016.94 1017.17 1017.49 1017.70 1018.08 1018.33 1018.47 1018.89 1019.05 1018.59 1018.81 1019.18 1019.31 1019.36 1019.36 1019.32 1019.25
1006.54 1006.44 1005.88 1005.53 1005.64 1005.70 1005.76 1005.14 1005.25 1005.82 1006.45 1006.93 1007.67 1008.29 1008.95 1009.11 1009.29 1009.86 1010.49 1011.16 1011.82 1012.48 1013.15 1013.85 1014.11 1014.45 1014.95 1015.29 1015.52 1015.73 1016.12 1016.21 1016.77 1017.22 1017.26 1017.29 1017.65 1018.04 1018.28 1018.62 1018.31 1018.47 1018.57 1018.66 1018.90 1019.07 1019.16 1019.12 1019.02
1007.08 1006.59 1006.31 1005.75 1005.64 1005.81 1005.63 1004.83 1005.17 1005.68 1006.19 1006.52 1007.06 1007.64 1008.20 1008.82 1009.19 1009.60 1010.35 1011.15 1011.97 1012.88 1013.32 1013.81 1014.04 1014.18 1014.79 1015.17 1015.31 1015.67 1016.04 1016.09 1016.49 1017.32 1017.34 1016.92 1017.00 1017.59 1017.79 1017.96 1017.82 1018.25 1018.41 1018.32 1018.57 1018.68 1018.96 1018.79 1018.76
1007.22 1006.79 1006.66 1006.32 1005.74 1005.66 1005.58 1004.84 1004.62 1005.61 1005.90 1005.88 1006.44 1007.02 1007.61 1008.07 1008.16 1009.24 1010.55 1011.13 1011.58 1012.14 1012.80 1013.10 1013.72 1013.89 1014.54 1014.93 1015.29 1015.87 1015.93 1015.93 1016.39 1017.04 1017.07 1016.95 1016.99 1017.10 1017.66 1017.58 1017.60 1018.19 1018.15 1018.15 1018.38 1018.44 1018.65 1018.71 1018.53
1007.51 1007.23 1006.88 1006.26 1005.87 1005.69 1005.10 1004.82 1004.26 1004.86 1005.26 1005.28 1006.06 1006.63 1006.96 1007.09 1007.92 1009.15 1010.13 1011.54 1011.76 1011.78 1012.29 1012.42 1013.03 1013.46 1014.13 1014.72 1015.09 1015.44 1015.46 1015.76 1016.43 1016.36 1016.50 1016.48 1016.39 1016.66 1017.31 1017.51 1017.26 1017.66 1017.79 1017.86 1018.14 1018.33 1018.46 1018.45 1018.51
1007.51 1007.12 1006.62 1006.11 1006.00 1005.79 1005.03 1004.24 1004.13 1004.75 1004.72 1004.92 1005.41 1005.94 1006.06 1006.76 1007.59 1009.01 1009.95 1010.63 1010.26 1010.63 1011.87 1012.23 1012.48 1013.07 1013.46 1014.09 1014.40 1014.76 1015.00 1015.09 1015.36 1015.78 1015.91 1015.81 1015.97 1016.36 1016.77 1017.24 1017.20 1017.20 1017.52 1017.76 1017.84 1018.05 1018.09 1018.26 1018.28
1007.02 1006.80 1006.49 1006.32 1005.96 1005.80 1005.27 1004.32 1004.50 1004.39 1004.59 1004.65 1004.88 1005.25 1005.42 1005.82 1006.76 1008.34 1009.41 1009.93 1010.24 1010.91 1011.77 1012.18 1012.57 1012.60 1012.91 1013.70 1014.40 1014.95 1015.13 1015.23 1015.21 1015.11 1015.21 1015.40 1015.66 1015.84 1016.33 1016.96 1017.11 1016.99 1017.29 1017.34 1017.59 1017.74 1017.78 1017.89 1018.15
1006.43 1006.55 1006.59 1006.44 1006.17 1005.77 1005.92 1004.85 1004.75 1004.88 1004.63 1004.71 1004.84 1005.01 1005.09 1005.18 1005.97 1007.31 1008.21 1008.94 1009.74 1010.23 1009.98 1011.19 1012.08 1012.05 1012.70 1013.38 1013.85 1014.07 1014.16 1014.35 1014.39 1014.59 1014.59 1014.91 1015.21 1015.64 1015.97 1016.31 1016.69 1016.98 1017.09 1017.12 1017.28 1017.45 1017.53 1017.69 1017.68
1006.23 1006.49 1006.61 1006.60 1006.31 1006.15 1005.93 1005.53 1004.96 1005.19 1004.77 1004.92 1005.02 1005.03 1004.99 1004.92 1005.13 1006.25 1006.96 1007.50 1008.58 1009.84 1010.06 1011.35 1012.16 1012.00 1012.27 1013.11 1013.64 1013.73 1013.91 1014.08 1014.38 1014.79 1014.88 1014.95 1015.18 1015.48 1015.58 1015.82 1016.14 1016.66 1016.68 1016.82 1016.99 1017.17 1017.39 1017.34 1017.41
1006.45 1006.53 1006.74 1006.88 1006.53 1006.05 1006.56 1006.49 1005.10 1005.77 1006.25 1005.69 1005.52 1005.28 1005.19 1005.02 1005.59 1005.92 1006.74 1007.49 1008.04 1009.21 1010.01 1010.88 1011.72 1012.28 1012.23 1012.83 1013.43 1013.89 1013.89 1013.84 1014.19 1014.41 1014.71 1014.88 1015.14 1015.40 1015.46 1015.54 1015.78 1015.89 1016.17 1016.32 1016.44 1016.75 1016.98 1017.05 1017.19
1006.22 1005.98 1006.01 1006.18 1006.23 1006.43 1006.96 1006.75 1005.86 1006.25 1006.46 1006.56 1006.14 1005.79 1005.69 1005.49 1005.81 1006.04 1006.37 1006.73 1007.50 1007.86 1008.92 1010.28 1011.31 1011.42 1011.39 1011.76 1012.35 1012.94 1013.54 1013.86 1013.63 1013.82 1014.16 1014.45 1014.53 1014.81 1015.02 1015.35 1015.75 1015.88 1015.80 1015.77 1016.00 1016.37 1016.51 1016.64 1016.70
1006.06 1005.87 1006.10 1006.33 1006.60 1006.71 1007.06 1006.35 1006.08 1006.51 1006.58 1006.57 1006.61 1006.47 1006.40 1006.10 1005.93 1006.04 1006.48 1007.28 1008.72 1009.15 1009.44 1009.24 1009.33 1010.51 1011.05 1011.31 1011.92 1012.22 1012.71 1012.94 1013.07 1013.14 1013.34 1013.66 1013.88 1014.12 1014.57 1014.87 1015.04 1015.42 1015.27 1015.36 1015.64 1015.90 1016.08 1016.11 1016.10
1006.39 1006.55 1007.04 1006.86 1007.81 1007.30 1006.88 1006.69 1006.21 1006.55 1006.55 1006.70 1006.73 1006.71 1006.57 1006.22 1006.14 1006.15 1007.29 1008.08 1008.88 1009.08 1009.54 1009.72 1010.08 1010.10 1010.46 1010.90 1010.55 1010.98 1011.60 1012.02 1012.21 1012.61 1012.84 1012.96 1013.39 1013.71 1014.09 1014.49 1014.67 1014.85 1014.98 1015.17 1015.40 1015.51 1015.63 1015.71 1015.90
1006.16 1007.07 1007.24 1007.10 1007.08 1006.98 1006.89 1006.80 1006.17 1006.70 1006.76 1007.10 1007.24 1007.18 1007.03 1006.88 1007.14 1007.63 1008.55 1008.98 1009.15 1009.35 1009.59 1010.01 1010.20 1010.18 1009.90 1010.38 1010.72 1010.03 1010.58 1011.21 1012.32 1012.82 1012.75 1012.91 1013.11 1013.39 1013.48 1014.01 1014.23 1014.33 1014.59 1014.71 1014.98 1015.07 1015.17 1015.31 1015.63
1007.01 1007.09 1007.72 1007.73 1007.87 1007.42 1007.16 1006.82 1007.50 1007.49 1007.76 1007.97 1008.03 1008.04 1007.88 1007.76 1008.41 1008.95 1009.46 1009.52 1009.67 1009.88 1009.83 1010.06 1010.13 1010.10 1010.05 1009.91 1009.71 1009.79 1010.12 1011.79 1012.00 1012.89 1012.62 1012.70 1012.63 1012.98 1013.22 1013.22 1013.58 1013.80 1014.05 1014.36 1014.50 1014.67 1014.75 1014.80 1015.05
1007.45 1007.41 1007.53 1007.36 1008.01 1008.48 1008.34 1007.79 1008.23 1008.29 1008.44 1008.58 1008.52 1008.77 1008.52 1008.70 1009.34 1009.81 1010.13 1010.09 1010.22 1010.19 1010.29 1010.22 1010.21 1009.88 1009.49 1009.27 1009.22 1009.31 1009.66 1011.05 1011.17 1011.84 1012.06 1012.34 1012.24 1012.43 1012.63 1012.49 1012.88 1013.28 1013.62 1013.73 1013.97 1014.21 1014.43 1014.52 1014.77
Thickness
5847 5846 5844 5832 5807 5807 5785 5791 5809 5805 5804 5816 5815 5804 5798 5798 5786 5770 5790 5787 5786 5781 5774 5773 5771 5768 5766 5765 5762 5758 5755 5752 5749 5747 5746 5746 5747 5747 5745 5744 5743 5742 5741 5740 5741 5741 5739 5739 5736
5848 5845 5839 5824 5800 5781 5780 5800 5799 5809 5814 5818 5814 5807 5800 5787 5793 5785 5784 5788 5784 5782 5776 5772 5769 5768 5765 5764 5761 5757 5754 5750 5746 5745 5742 5742 5744 5743 5743 5741 5740 5740 5739 5738 5739 5738 5737 5736 5734
5849 5850 5830 5812 5791 5778 5780 5798 5803 5812 5820 5818 5807 5811 5800 5786 5790 5789 5793 5790 5783 5778 5777 5772 5768 5766 5765 5762 5760 5757 5754 5750 5746 5743 5740 5738 5738 5738 5738 5738 5737 5737 5738 5737 5738 5736 5735 5733 5731
5847 5842 5833 5803 5789 5796 5797 5804 5809 5810 5817 5819 5812 5793 5794 5797 5791 5794 5793 5788 5783 5777 5774 5772 5770 5766 5764 5761 5759 5756 5752 5748 5743 5741 5735 5731 5731 5736 5734 5734 5735 5734 5734 5735 5736 5734 5733 5732 5729
5850 5836 5806 5795 5791 5800 5805 5809 5811 5805 5807 5807 5809 5785 5782 5790 5796 5794 5790 5786 5781 5775 5772 5770 5769 5768 5764 5760 5757 5756 5751 5747 5743 5738 5733 5730 5729 5729 5730 5732 5733 5733 5732 5732 5732 5731 5731 5730 5727
5830 5827 5798 5787 5792 5802 5807 5813 5813 5805 5803 5801 5798 5791 5782 5792 5790 5790 5788 5786 5781 5775 5772 5768 5766 5765 5762 5760 5756 5754 5751 5748 5744 5738 5732 5726 5726 5726 5727 5730 5732 5732 5732 5731 5731 5730 5729 5728 5726
5822 5814 5795 5796 5792 5797 5805 5819 5807 5801 5798 5797 5806 5785 5781 5784 5789 5789 5784 5782 5778 5774 5772 5768 5765 5762 5761 5758 5755 5754 5751 5749 5744 5739 5733 5728 5726 5726 5728 5729 5732 5732 5731 5730 5729 5729 5729 5727 5727
5826 5820 5802 5798 5791 5795 5814 5813 5812 5803 5793 5807 5808 5787 5778 5788 5788 5786 5781 5778 5777 5773 5771 5769 5766 5764 5761 5758 5754 5753 5751 5747 5743 5739 5734 5731 5727 5727 5729 5730 5730 5731 5731 5729 5729 5727 5728 5727 5727
5832 5805 5794 5798 5798 5807 5817 5807 5812 5814 5799 5799 5801 5802 5803 5796 5789 5782 5777 5773 5772 5771 5772 5770 5767 5765 5762 5759 5756 5752 5749 5746 5743 5739 5736 5732 5729 5729 5730 5730 5731 5731 5730 5729 5728 5728 5729 5729 5729
5818 5799 5801 5817 5816 5813 5815 5812 5809 5803 5798 5794 5797 5801 5799 5794 5786 5781 5779 5775 5773 5771 5771 5770 5769 5765 5761 5759 5755 5753 5749 5747 5744 5741 5737 5735 5732 5732 5731 5731 5732 5731 5731 5729 5728 5729 5729 5732 5733
5817 5802 5816 5822 5826 5825 5814 5809 5814 5805 5798 5808 5800 5796 5795 5791 5787 5784 5781 5781 5779 5775 5772 5770 5766 5763 5760 5759 5756 5753 5753 5748 5746 5744 5740 5737 5735 5734 5732 5733 5733 5733 5732 5732 5731 5733 5733 5734 5734
5810 5824 5825 5826 5829 5823 5814 5818 5811 5811 5815 5824 5818 5808 5801 5794 5792 5789 5785 5783 5779 5775 5774 5771 5767 5762 5759 5757 5755 5755 5754 5750 5748 5746 5742 5739 5736 5735 5734 5733 5734 5734 5735 5734 5733 5736 5737 5736 5735
5815 5824 5829 5832 5825 5825 5824 5816 5814 5815 5824 5824 5816 5808 5802 5800 5797 5794 5789 5784 5779 5774 5772 5770 5765 5762 5760 5757 5755 5753 5751 5751 5748 5746 5742 5740 5737 5738 5737 5735 5737 5737 5737 5735 5735 5737 5739 5738 5738
5821 5821 5828 5833 5829 5827 5819 5820 5819 5825 5827 5816 5809 5808 5808 5804 5801 5794 5789 5784 5781 5778 5774 5771 5766 5762 5760 5758 5756 5755 5752 5750 5747 5745 5745 5743 5740 5739 5739 5738 5739 5740 5739 5738 5737 5738 5739 5740 5739
5823 5813 5826 5831 5828 5824 5827 5811 5814 5833 5829 5819 5812 5807 5808 5808 5805 5801 5798 5791 5788 5783 5780 5774 5769 5765 5761 5759 5756 5755 5753 5748 5746 5743 5744 5743 5741 5740 5739 5739 5738 5743 5742 5739 5738 5738 5739 5740 5741
5809 5810 5796 5822 5823 5826 5825 5803 5828 5835 5827 5822 5819 5813 5808 5810 5812 5808 5803 5797 5792 5786 5780 5776 5774 5770 5766 5762 5758 5756 5753 5751 5745 5743 5744 5745 5744 5741 5740 5740 5742 5743 5744 5743 5742 5742 5742 5744 5745
5797 5785 5790 5805 5825 5820 5818 5814 5829 5833 5828 5824 5823 5819 5814 5810 5811 5809 5801 5795 5791 5781 5777 5772 5771 5771 5765 5762 5759 5755 5752 5752 5746 5740 5740 5746 5748 5745 5743 5743 5745 5744 5744 5746 5746 5746 5745 5747 5748
5780 5788 5790 5789 5817 5818 5811 5816 5836 5829 5828 5829 5827 5824 5818 5816 5817 5812 5797 5795 5798 5788 5783 5779 5774 5773 5766 5763 5759 5753 5752 5750 5747 5740 5740 5745 5747 5747 5745 5745 5747 5745 5746 5748 5748 5749 5750 5749 5751
5793 5788 5784 5800 5816 5810 5813 5815 5831 5835 5832 5833 5826 5825 5823 5823 5823 5814 5804 5793 5789 5794 5788 5787 5777 5776 5770 5762 5757 5754 5752 5752 5746 5744 5746 5748 5752 5749 5747 5747 5749 5747 5747 5749 5750 5750 5749 5750 5752
5788 5786 5792 5807 5811 5808 5814 5820 5834 5830 5834 5837 5833 5829 5829 5825 5821 5810 5802 5800 5804 5799 5788 5785 5784 5778 5775 5768 5765 5762 5758 5757 5753 5751 5751 5753 5753 5752 5750 5749 5750 5749 5749 5749 5751 5751 5750 5751 5753
5791 5790 5792 5793 5807 5809 5808 5813 5815 5834 5836 5839 5841 5841 5839 5833 5825 5812 5805 5803 5802 5796 5787 5781 5781 5784 5780 5772 5764 5757 5756 5754 5754 5757 5759 5757 5756 5755 5752 5749 5751 5751 5749 5751 5751 5753 5753 5750 5752
5789 5801 5798 5795 5793 5784 5801 5784 5810 5817 5826 5833 5838 5838 5839 5840 5835 5824 5815 5812 5804 5799 5800 5793 5787 5787 5780 5773 5767 5762 5759 5755 5758 5759 5762 5760 5758 5756 5753 5751 5749 5749 5748 5750 5752 5753 5754 5754 5751
5798 5804 5797 5793 5790 5788 5793 5790 5811 5815 5821 5825 5832 5837 5841 5843 5844 5832 5827 5824 5817 5805 5801 5790 5783 5787 5785 5775 5767 5764 5761 5760 5758 5756 5756 5758 5756 5754 5753 5752 5750 5748 5750 5750 5751 5752 5753 5756 5754
5805 5798 5790 5785 5785 5775 5777 5778 5803 5800 5800 5816 5828 5835 5837 5841 5838 5837 5833 5828 5820 5810 5802 5788 5780 5776 5781 5775 5769 5762 5759 5759 5755 5754 5752 5753 5754 5752 5750 5751 5751 5751 5751 5751 5753 5753 5753 5754 5755
5801 5796 5770 5766 5766 5763 5777 5774 5795 5804 5812 5814 5818 5828 5832 5836 5835 5834 5832 5830 5821 5818 5808 5796 5780 5780 5784 5780 5777 5772 5764 5759 5758 5756 5753 5751 5753 5752 5751 5749 5747 5747 5750 5753 5753 5752 5754 5754 5755
5794 5799 5772 5741 5752 5765 5773 5774 5794 5807 5815 5819 5820 5823 5824 5828 5834 5834 5830 5822 5803 5805 5803 5803 5799 5787 5785 5783 5778 5776 5771 5767 5765 5762 5760 5756 5755 5755 5752 5749 5746 5746 5749 5751 5752 5754 5754 5756 5758
5788 5783 5788 5768 5752 5754 5768 5781 5803 5805 5808 5811 5813 5816 5818 5825 5830 5831 5820 5814 5807 5803 5800 5797 5793 5790 5783 5782 5786 5782 5777 5773 5770 5765 5763 5761 5758 5756 5752 5747 5745 5745 5746 5747 5750 5752 5754 5755 5757
5803 5792 5775 5771 5744 5739 5762 5762 5781 5785 5796 5799 5800 5804 5810 5817 5815 5812 5805 5803 5802 5799 5797 5791 5789 5787 5788 5783 5781 5787 5784 5780 5769 5761 5759 5757 5756 5753 5751 5745 5743 5746 5745 5748 5749 5752 5755 5754 5753
5785 5780 5766 5769 5756 5746 5741 5762 5780 5781 5785 5784 5788 5792 5797 5803 5797 5793 5791 5792 5792 5791 5789 5786 5785 5783 5781 5782 5785 5787 5786 5765 5758 5752 5756 5753 5756 5752 5750 5747 5744 5746 5747 5747 5749 5752 5754 5754 5755
5782 5775 5775 5761 5744 5739 5740 5752 5774 5779 5780 5780 5782 5781 5788 5788 5783 5779 5776 5779 5779 5779 5779 5779 5779 5782 5784 5785 5787 5788 5785 5766 5752 5744 5755 5754 5754 5754 5751 5751 5750 5749 5747 5750 5750 5751 5751 5752 5751